Location: Hamilton
(37.7830°S, 175.2830°E)
Time: 22:48:01
(UTC+13:00)

Cosmos 1666 Rocket - Pass Details

Date: 24 January 2019
Orbit: 605 x 632 km, 82.5° (Epoch: 18 October)

Event Time Altitude Azimuth Distance (km) Brightness Sun altitude
Rises 21:01:27 0° 182° (S) 2,961 7.5 -4.9°
Reaches altitude 10° 21:03:47 10° 176° (S) 2,042 6.6 -5.3°
Maximum altitude 21:08:11 50° 100° (E) 814 3.9 -6.1°
Drops below altitude 10° 21:12:31 10° 24° (NNE) 2,000 5.7 -6.8°
Enters shadow 21:14:23 - 19° (NNE) 2,736 6.4 -7.1°
